Time,TemperatureF,DewpointF,PressureIn,WindDirection,WindDirectionDegrees,WindSpeedMPH,WindSpeedGustMPH,Humidity,HourlyPrecipIn,Conditions,Clouds,dailyrainin,SolarRadiationWatts/m^2,SoftwareType,DateUTC
2013-06-09 00:00:00,62.7,60.9,30.07,North,360,0.0,0.0,94,0.00,,,0.00,0,Wunderground v.1.15,2013-06-09 04:00:00,
2013-06-09 00:10:00,63.3,61.5,30.08,North,360,0.0,0.0,94,0.00,,,0.00,0,Wunderground v.1.15,2013-06-09 04:10:00,
2013-06-09 00:20:00,63.8,61.7,30.08,North,360,0.0,0.0,93,0.00,,,0.00,0,Wunderground v.1.15,2013-06-09 04:20:00,
2013-06-09 00:30:00,64.0,62.2,30.08,North,360,0.0,0.0,94,0.00,,,0.00,0,Wunderground v.1.15,2013-06-09 04:30:00,
2013-06-09 00:40:00,63.6,61.5,30.08,North,360,0.0,0.0,93,0.00,,,0.00,0,Wunderground v.1.15,2013-06-09 04:40:00,
2013-06-09 00:50:00,63.8,61.7,30.08,North,360,0.0,0.0,93,0.00,,,0.00,0,Wunderground v.1.15,2013-06-09 04:50:00,
2013-06-09 01:00:00,63.8,61.7,30.08,North,360,0.0,0.0,93,0.00,,,0.00,0,Wunderground v.1.15,2013-06-09 05:00:00,
2013-06-09 01:10:00,63.5,61.4,30.08,North,360,0.0,0.0,93,0.00,,,0.00,0,Wunderground v.1.15,2013-06-09 05:10:00,
2013-06-09 01:20:00,63.0,60.9,30.08,North,360,0.0,0.0,93,0.00,,,0.00,0,Wunderground v.1.15,2013-06-09 05:20:00,
2013-06-09 01:30:00,62.8,61.0,30.08,North,360,0.0,0.0,94,0.00,,,0.00,0,Wunderground v.1.15,2013-06-09 05:30:00,
2013-06-09 01:40:00,62.5,60.7,30.08,North,360,0.0,0.0,94,0.00,,,0.00,0,Wunderground v.1.15,2013-06-09 05:40:00,
2013-06-09 01:50:00,62.4,60.7,30.08,North,360,0.0,0.0,94,0.00,,,0.00,0,Wunderground v.1.15,2013-06-09 05:50:00,
2013-06-09 02:00:00,62.8,61.0,30.08,North,360,0.0,0.0,94,0.00,,,0.00,0,Wunderground v.1.15,2013-06-09 06:00:00,
2013-06-09 02:10:00,62.8,60.7,30.08,North,360,0.0,0.0,93,0.00,,,0.00,0,Wunderground v.1.15,2013-06-09 06:10:00,
2013-06-09 02:20:00,62.8,60.7,30.08,North,360,0.0,0.0,93,0.00,,,0.00,0,Wunderground v.1.15,2013-06-09 06:20:00,
2013-06-09 02:30:00,62.8,60.7,30.08,North,360,0.0,0.0,93,0.00,,,0.00,0,Wunderground v.1.15,2013-06-09 06:30:00,
2013-06-09 02:40:00,62.7,60.6,30.08,North,360,0.0,0.0,93,0.00,,,0.00,0,Wunderground v.1.15,2013-06-09 06:40:00,
2013-06-09 02:50:00,62.2,60.2,30.08,North,360,0.0,0.0,93,0.00,,,0.00,0,Wunderground v.1.15,2013-06-09 06:50:00,
2013-06-09 03:00:00,62.0,60.0,30.08,North,360,0.0,0.0,93,0.00,,,0.00,0,Wunderground v.1.15,2013-06-09 07:00:00,
2013-06-09 03:10:00,61.7,59.7,30.07,North,360,0.0,0.0,93,0.00,,,0.00,0,Wunderground v.1.15,2013-06-09 07:10:00,
2013-06-09 03:20:00,61.3,59.6,30.08,North,360,0.0,0.0,94,0.00,,,0.00,0,Wunderground v.1.15,2013-06-09 07:20:00,
2013-06-09 03:30:00,61.3,59.6,30.08,North,360,0.0,0.0,94,0.00,,,0.00,0,Wunderground v.1.15,2013-06-09 07:30:00,
2013-06-09 03:40:00,60.6,58.9,30.07,North,360,0.0,0.0,94,0.00,,,0.00,0,Wunderground v.1.15,2013-06-09 07:40:00,
2013-06-09 03:50:00,60.5,58.8,30.08,North,360,0.0,0.0,94,0.00,,,0.00,0,Wunderground v.1.15,2013-06-09 07:50:00,
2013-06-09 04:00:00,60.5,59.1,30.07,North,360,0.0,0.0,95,0.00,,,0.00,0,Wunderground v.1.15,2013-06-09 08:00:00,
2013-06-09 04:10:00,60.3,58.6,30.08,North,360,0.0,0.0,94,0.00,,,0.00,0,Wunderground v.1.15,2013-06-09 08:10:00,
2013-06-09 04:20:00,60.2,58.8,30.08,North,360,0.0,0.0,95,0.00,,,0.00,0,Wunderground v.1.15,2013-06-09 08:20:00,
2013-06-09 04:30:00,59.9,58.5,30.08,North,360,0.0,0.0,95,0.00,,,0.00,0,Wunderground v.1.15,2013-06-09 08:30:00,
2013-06-09 04:40:00,59.6,58.2,30.09,North,360,0.0,0.0,95,0.00,,,0.00,0,Wunderground v.1.15,2013-06-09 08:40:00,
2013-06-09 04:50:00,59.6,58.2,30.09,North,360,0.0,0.0,95,0.00,,,0.00,0,Wunderground v.1.15,2013-06-09 08:50:00,
2013-06-09 05:00:00,59.6,58.2,30.09,North,360,0.0,0.0,95,0.00,,,0.00,0,Wunderground v.1.15,2013-06-09 09:00:00,
2013-06-09 05:10:00,59.6,58.2,30.10,North,360,0.0,0.0,95,0.00,,,0.00,0,Wunderground v.1.15,2013-06-09 09:10:00,
2013-06-09 05:20:00,59.7,58.3,30.10,North,360,0.0,0.0,95,0.00,,,0.00,0,Wunderground v.1.15,2013-06-09 09:20:00,
2013-06-09 05:30:00,59.8,58.7,30.10,North,360,0.0,0.0,96,0.00,,,0.00,0,Wunderground v.1.15,2013-06-09 09:30:00,
2013-06-09 05:40:00,59.9,58.8,30.10,North,360,0.0,0.0,96,0.00,,,0.00,0,Wunderground v.1.15,2013-06-09 09:40:00,
2013-06-09 05:50:00,59.9,58.8,30.10,North,360,0.0,0.0,96,0.00,,,0.00,0,Wunderground v.1.15,2013-06-09 09:50:00,
2013-06-09 06:00:00,60.0,58.9,30.11,North,360,0.0,0.0,96,0.00,,,0.00,5,Wunderground v.1.15,2013-06-09 10:00:00,
2013-06-09 06:10:00,60.2,59.1,30.11,North,360,0.0,0.0,96,0.00,,,0.00,11,Wunderground v.1.15,2013-06-09 10:10:00,
2013-06-09 06:20:00,60.5,59.4,30.11,North,360,0.0,0.0,96,0.00,,,0.00,18,Wunderground v.1.15,2013-06-09 10:20:00,
2013-06-09 06:30:00,60.9,59.8,30.10,NE,44,0.0,0.0,96,0.00,,,0.00,35,Wunderground v.1.15,2013-06-09 10:30:00,
2013-06-09 06:40:00,60.9,59.8,30.12,NE,45,0.0,0.0,96,0.00,,,0.00,28,Wunderground v.1.15,2013-06-09 10:40:00,
2013-06-09 06:50:00,61.0,59.9,30.13,NE,45,0.0,0.0,96,0.00,,,0.00,42,Wunderground v.1.15,2013-06-09 10:50:00,
2013-06-09 07:00:00,61.2,60.1,30.14,NE,45,0.0,0.0,96,0.00,,,0.00,39,Wunderground v.1.15,2013-06-09 11:00:00,
2013-06-09 07:10:00,61.3,60.2,30.14,NE,45,0.0,0.0,96,0.00,,,0.00,53,Wunderground v.1.15,2013-06-09 11:10:00,
2013-06-09 07:20:00,61.6,60.4,30.14,NE,45,0.0,0.0,96,0.00,,,0.00,77,Wunderground v.1.15,2013-06-09 11:20:00,
2013-06-09 07:30:00,61.8,60.6,30.15,NE,45,0.0,0.0,96,0.00,,,0.00,51,Wunderground v.1.15,2013-06-09 11:30:00,
2013-06-09 07:40:00,62.1,60.9,30.15,NE,45,0.0,0.0,96,0.00,,,0.00,70,Wunderground v.1.15,2013-06-09 11:40:00,
2013-06-09 07:50:00,62.3,61.1,30.15,NE,45,0.0,0.0,96,0.00,,,0.00,91,Wunderground v.1.15,2013-06-09 11:50:00,
2013-06-09 08:00:00,62.8,61.3,30.15,NE,45,0.0,0.0,95,0.00,,,0.00,90,Wunderground v.1.15,2013-06-09 12:00:00,
2013-06-09 08:10:00,63.5,61.7,30.15,NE,45,0.0,0.0,94,0.00,,,0.00,123,Wunderground v.1.15,2013-06-09 12:10:00,
2013-06-09 08:20:00,64.4,62.0,30.15,ENE,65,0.0,0.0,92,0.00,,,0.00,163,Wunderground v.1.15,2013-06-09 12:20:00,
2013-06-09 08:30:00,65.1,61.8,30.15,East,80,0.0,0.0,89,0.00,,,0.00,230,Wunderground v.1.15,2013-06-09 12:30:00,
2013-06-09 08:40:00,66.2,61.9,30.15,East,80,0.0,0.0,86,0.00,,,0.00,425,Wunderground v.1.15,2013-06-09 12:40:00,
2013-06-09 08:50:00,67.1,62.4,30.16,East,80,0.0,0.0,85,0.00,,,0.00,302,Wunderground v.1.15,2013-06-09 12:50:00,
2013-06-09 09:00:00,68.1,62.7,30.16,East,80,0.0,1.0,83,0.00,,,0.00,357,Wunderground v.1.15,2013-06-09 13:00:00,
2013-06-09 09:10:00,68.6,63.2,30.16,NNW,345,0.0,0.0,83,0.00,,,0.00,257,Wunderground v.1.15,2013-06-09 13:10:00,
2013-06-09 09:20:00,68.6,62.9,30.16,ENE,57,0.0,1.0,82,0.00,,,0.00,221,Wunderground v.1.15,2013-06-09 13:20:00,
2013-06-09 09:30:00,68.8,62.4,30.16,ENE,57,0.0,0.0,80,0.00,,,0.00,345,Wunderground v.1.15,2013-06-09 13:30:00,
2013-06-09 09:40:00,69.4,62.6,30.16,East,84,0.0,0.0,79,0.00,,,0.00,320,Wunderground v.1.15,2013-06-09 13:40:00,
2013-06-09 09:50:00,69.7,63.3,30.16,East,83,0.0,0.0,80,0.00,,,0.00,332,Wunderground v.1.15,2013-06-09 13:50:00,
2013-06-09 10:00:00,70.3,63.8,30.16,East,82,0.0,3.0,80,0.00,,,0.00,387,Wunderground v.1.15,2013-06-09 14:00:00,
2013-06-09 10:10:00,70.4,62.8,30.16,East,80,1.0,1.0,77,0.00,,,0.00,299,Wunderground v.1.15,2013-06-09 14:10:00,
2013-06-09 10:20:00,70.5,62.9,30.17,East,95,0.0,0.0,77,0.00,,,0.00,237,Wunderground v.1.15,2013-06-09 14:20:00,
2013-06-09 10:30:00,70.8,62.9,30.16,ESE,119,1.0,1.0,76,0.00,,,0.00,302,Wunderground v.1.15,2013-06-09 14:30:00,
2013-06-09 10:40:00,71.3,63.0,30.16,ESE,115,1.0,1.0,75,0.00,,,0.00,366,Wunderground v.1.15,2013-06-09 14:40:00,
2013-06-09 10:50:00,71.9,63.5,30.16,SE,136,1.0,1.0,75,0.00,,,0.00,432,Wunderground v.1.15,2013-06-09 14:50:00,
2013-06-09 11:00:00,72.1,63.7,30.15,East,96,1.0,1.0,75,0.00,,,0.00,355,Wunderground v.1.15,2013-06-09 15:00:00,
2013-06-09 11:10:00,72.5,64.9,30.14,ESE,102,1.0,1.0,77,0.00,,,0.00,399,Wunderground v.1.15,2013-06-09 15:10:00,
2013-06-09 11:20:00,73.0,64.6,30.15,ESE,109,1.0,1.0,75,0.00,,,0.00,538,Wunderground v.1.15,2013-06-09 15:20:00,
2013-06-09 11:30:00,73.4,63.0,30.15,South,169,1.0,1.0,70,0.00,,,0.00,388,Wunderground v.1.15,2013-06-09 15:30:00,
2013-06-09 11:40:00,73.0,63.0,30.16,South,173,1.0,1.0,71,0.00,,,0.00,422,Wunderground v.1.15,2013-06-09 15:40:00,
2013-06-09 11:50:00,73.7,63.3,30.16,East,83,2.0,2.0,70,0.00,,,0.00,517,Wunderground v.1.15,2013-06-09 15:50:00,
2013-06-09 12:00:00,73.7,63.3,30.15,East,92,3.0,4.0,70,0.00,,,0.00,427,Wunderground v.1.15,2013-06-09 16:00:00,
2013-06-09 12:10:00,74.9,64.0,30.15,East,101,3.0,4.0,69,0.00,,,0.00,670,Wunderground v.1.15,2013-06-09 16:10:00,
2013-06-09 12:20:00,75.1,65.5,30.15,East,84,2.0,2.0,72,0.00,,,0.00,1005,Wunderground v.1.15,2013-06-09 16:20:00,
2013-06-09 12:30:00,75.7,66.4,30.14,SE,132,3.0,3.0,73,0.00,,,0.00,1009,Wunderground v.1.15,2013-06-09 16:30:00,
2013-06-09 12:40:00,75.5,65.8,30.14,East,101,3.0,3.0,72,0.00,,,0.00,605,Wunderground v.1.15,2013-06-09 16:40:00,
2013-06-09 12:50:00,75.6,65.5,30.13,ESE,121,2.0,4.0,71,0.00,,,0.00,348,Wunderground v.1.15,2013-06-09 16:50:00,
2013-06-09 13:00:00,75.6,65.9,30.13,ESE,107,3.0,3.0,72,0.00,,,0.00,712,Wunderground v.1.15,2013-06-09 17:00:00,
2013-06-09 13:10:00,75.9,66.2,30.13,SE,132,2.0,2.0,72,0.00,,,0.00,512,Wunderground v.1.15,2013-06-09 17:10:00,
2013-06-09 13:20:00,75.8,66.9,30.13,ENE,61,1.0,3.0,74,0.00,,,0.00,469,Wunderground v.1.15,2013-06-09 17:20:00,
2013-06-09 13:30:00,76.3,66.2,30.12,ESE,106,1.0,2.0,71,0.00,,,0.00,1000,Wunderground v.1.15,2013-06-09 17:30:00,
2013-06-09 13:40:00,77.1,67.4,30.11,SE,136,2.0,2.0,72,0.00,,,0.00,353,Wunderground v.1.15,2013-06-09 17:40:00,
2013-06-09 13:50:00,77.9,68.1,30.11,SW,229,1.0,1.0,72,0.00,,,0.00,995,Wunderground v.1.15,2013-06-09 17:50:00,
2013-06-09 14:00:00,77.1,67.4,30.10,East,101,1.0,3.0,72,0.00,,,0.00,483,Wunderground v.1.15,2013-06-09 18:00:00,
2013-06-09 14:10:00,77.1,67.0,30.11,SE,133,2.0,2.0,71,0.00,,,0.00,512,Wunderground v.1.15,2013-06-09 18:10:00,
2013-06-09 14:20:00,77.8,68.8,30.10,SE,137,1.0,1.0,74,0.00,,,0.00,540,Wunderground v.1.15,2013-06-09 18:20:00,
2013-06-09 14:30:00,78.3,69.3,30.10,SSE,148,2.0,2.0,74,0.00,,,0.00,533,Wunderground v.1.15,2013-06-09 18:30:00,
2013-06-09 14:40:00,77.9,67.3,30.10,ESE,117,1.0,1.0,70,0.00,,,0.00,367,Wunderground v.1.15,2013-06-09 18:40:00,
2013-06-09 14:50:00,77.6,67.4,30.09,ESE,121,1.0,4.0,71,0.00,,,0.00,265,Wunderground v.1.15,2013-06-09 18:50:00,
2013-06-09 15:00:00,77.0,66.9,30.09,SE,131,2.0,2.0,71,0.00,,,0.00,265,Wunderground v.1.15,2013-06-09 19:00:00,
2013-06-09 15:10:00,77.1,68.2,30.09,SE,143,2.0,2.0,74,0.00,,,0.00,283,Wunderground v.1.15,2013-06-09 19:10:00,
2013-06-09 15:20:00,77.2,67.9,30.09,SE,136,3.0,3.0,73,0.00,,,0.00,364,Wunderground v.1.15,2013-06-09 19:20:00,
2013-06-09 15:30:00,77.4,67.7,30.08,SE,140,1.0,1.0,72,0.00,,,0.00,276,Wunderground v.1.15,2013-06-09 19:30:00,
2013-06-09 15:40:00,77.0,68.1,30.08,SE,136,2.0,4.0,74,0.00,,,0.00,302,Wunderground v.1.15,2013-06-09 19:40:00,
2013-06-09 15:50:00,76.8,68.3,30.07,SE,141,2.0,2.0,75,0.00,,,0.00,302,Wunderground v.1.15,2013-06-09 19:50:00,
2013-06-09 16:00:00,76.9,68.4,30.07,SE,142,1.0,2.0,75,0.00,,,0.00,193,Wunderground v.1.15,2013-06-09 20:00:00,
2013-06-09 16:10:00,76.3,68.6,30.07,SE,137,1.0,4.0,77,0.00,,,0.00,81,Wunderground v.1.15,2013-06-09 20:10:00,
2013-06-09 16:20:00,75.5,68.9,30.06,SE,128,1.0,1.0,80,0.00,,,0.00,142,Wunderground v.1.15,2013-06-09 20:20:00,
2013-06-09 16:30:00,75.0,69.1,30.06,ESE,119,0.0,0.0,82,0.00,,,0.00,120,Wunderground v.1.15,2013-06-09 20:30:00,
2013-06-09 16:40:00,75.0,69.5,30.06,ESE,111,1.0,1.0,83,0.00,,,0.00,186,Wunderground v.1.15,2013-06-09 20:40:00,
2013-06-09 16:50:00,74.9,69.0,30.06,ESE,114,1.0,1.0,82,0.00,,,0.00,148,Wunderground v.1.15,2013-06-09 20:50:00,
2013-06-09 17:00:00,75.2,69.3,30.06,ESE,118,0.0,0.0,82,0.00,,,0.00,225,Wunderground v.1.15,2013-06-09 21:00:00,
2013-06-09 17:10:00,75.5,69.3,30.06,ESE,118,0.0,0.0,81,0.00,,,0.00,148,Wunderground v.1.15,2013-06-09 21:10:00,
2013-06-09 17:20:00,75.4,69.2,30.07,ESE,118,0.0,0.0,81,0.00,,,0.00,53,Wunderground v.1.15,2013-06-09 21:20:00,
2013-06-09 17:30:00,75.1,69.2,30.06,ESE,118,0.0,0.0,82,0.00,,,0.00,104,Wunderground v.1.15,2013-06-09 21:30:00,
2013-06-09 17:40:00,75.5,70.0,30.06,East,101,0.0,0.0,83,0.00,,,0.00,207,Wunderground v.1.15,2013-06-09 21:40:00,
2013-06-09 17:50:00,75.7,69.1,30.06,East,94,1.0,1.0,80,0.00,,,0.00,162,Wunderground v.1.15,2013-06-09 21:50:00,
2013-06-09 18:00:00,76.0,69.4,30.06,East,95,1.0,1.0,80,0.00,,,0.00,236,Wunderground v.1.15,2013-06-09 22:00:00,
2013-06-09 18:10:00,76.2,69.2,30.06,ESE,111,2.0,2.0,79,0.00,,,0.00,141,Wunderground v.1.15,2013-06-09 22:10:00,
2013-06-09 18:20:00,76.2,69.6,30.06,ESE,119,1.0,1.0,80,0.00,,,0.00,265,Wunderground v.1.15,2013-06-09 22:20:00,
2013-06-09 18:30:00,76.7,70.1,30.06,East,94,2.0,4.0,80,0.00,,,0.00,174,Wunderground v.1.15,2013-06-09 22:30:00,
2013-06-09 18:40:00,76.6,69.6,30.05,ESE,111,2.0,2.0,79,0.00,,,0.00,134,Wunderground v.1.15,2013-06-09 22:40:00,
2013-06-09 18:50:00,76.4,69.8,30.05,SE,126,1.0,1.0,80,0.00,,,0.00,81,Wunderground v.1.15,2013-06-09 22:50:00,
2013-06-09 19:00:00,76.1,69.5,30.05,ESE,117,1.0,2.0,80,0.00,,,0.00,62,Wunderground v.1.15,2013-06-09 23:00:00,
2013-06-09 19:10:00,76.0,69.7,30.06,East,101,1.0,3.0,81,0.00,,,0.00,53,Wunderground v.1.15,2013-06-09 23:10:00,
2013-06-09 19:20:00,75.8,69.2,30.06,ESE,110,1.0,5.0,80,0.00,,,0.00,70,Wunderground v.1.15,2013-06-09 23:20:00,
2013-06-09 19:30:00,75.8,69.2,30.07,SE,132,2.0,3.0,80,0.00,,,0.00,65,Wunderground v.1.15,2013-06-09 23:30:00,
2013-06-09 19:40:00,75.5,68.9,30.06,ESE,107,3.0,3.0,80,0.00,,,0.00,53,Wunderground v.1.15,2013-06-09 23:40:00,
2013-06-09 19:50:00,74.9,69.0,30.06,SE,132,4.0,4.0,82,0.00,,,0.00,42,Wunderground v.1.15,2013-06-09 23:50:00,
2013-06-09 20:00:00,73.9,68.4,30.07,East,92,5.0,5.0,83,0.00,,,0.00,30,Wunderground v.1.15,2013-06-10 00:00:00,
2013-06-09 20:10:00,73.0,67.9,30.07,SSE,158,4.0,4.0,84,0.00,,,0.00,18,Wunderground v.1.15,2013-06-10 00:10:00,
2013-06-09 20:20:00,72.1,67.3,30.07,ESE,111,3.0,3.0,85,0.00,,,0.00,9,Wunderground v.1.15,2013-06-10 00:20:00,
2013-06-09 20:30:00,71.3,66.9,30.07,SE,140,1.0,1.0,86,0.00,,,0.00,0,Wunderground v.1.15,2013-06-10 00:30:00,
2013-06-09 20:40:00,70.8,66.7,30.07,ESE,120,0.0,0.0,87,0.00,,,0.00,0,Wunderground v.1.15,2013-06-10 00:40:00,
2013-06-09 20:50:00,70.2,66.5,30.07,ESE,120,0.0,0.0,88,0.00,,,0.00,0,Wunderground v.1.15,2013-06-10 00:50:00,
2013-06-09 21:00:00,69.8,66.7,30.07,ESE,120,0.0,0.0,90,0.00,,,0.00,0,Wunderground v.1.15,2013-06-10 01:00:00,
2013-06-09 21:10:00,69.5,66.4,30.07,ESE,120,0.0,0.0,90,0.00,,,0.00,0,Wunderground v.1.15,2013-06-10 01:10:00,
2013-06-09 21:20:00,68.6,65.5,30.07,ESE,120,0.0,0.0,90,0.00,,,0.00,0,Wunderground v.1.15,2013-06-10 01:20:00,
2013-06-09 21:30:00,67.9,65.5,30.07,ESE,120,0.0,0.0,92,0.00,,,0.00,0,Wunderground v.1.15,2013-06-10 01:30:00,
2013-06-09 21:40:00,67.6,65.5,30.07,ESE,120,0.0,0.0,93,0.00,,,0.00,0,Wunderground v.1.15,2013-06-10 01:40:00,
2013-06-09 21:50:00,67.5,65.7,30.07,ESE,120,0.0,0.0,94,0.00,,,0.00,0,Wunderground v.1.15,2013-06-10 01:50:00,
2013-06-09 22:00:00,67.3,65.5,30.07,ESE,120,0.0,0.0,94,0.00,,,0.00,0,Wunderground v.1.15,2013-06-10 02:00:00,
2013-06-09 22:10:00,67.0,65.5,30.07,ESE,120,0.0,0.0,95,0.00,,,0.00,0,Wunderground v.1.15,2013-06-10 02:10:00,
2013-06-09 22:20:00,67.0,65.2,30.08,ESE,120,0.0,0.0,94,0.00,,,0.00,0,Wunderground v.1.15,2013-06-10 02:20:00,
2013-06-09 22:30:00,66.8,65.3,30.08,ESE,120,0.0,0.0,95,0.00,,,0.00,0,Wunderground v.1.15,2013-06-10 02:30:00,
2013-06-09 22:40:00,66.6,65.1,30.07,ESE,120,0.0,0.0,95,0.00,,,0.00,0,Wunderground v.1.15,2013-06-10 02:40:00,
2013-06-09 22:50:00,66.6,65.1,30.07,ESE,120,0.0,0.0,95,0.00,,,0.00,0,Wunderground v.1.15,2013-06-10 02:50:00,
2013-06-09 23:00:00,66.4,64.9,30.07,ESE,120,0.0,0.0,95,0.00,,,0.00,0,Wunderground v.1.15,2013-06-10 03:00:00,
2013-06-09 23:10:00,66.4,64.9,30.07,ESE,120,0.0,0.0,95,0.00,,,0.00,0,Wunderground v.1.15,2013-06-10 03:10:00,
2013-06-09 23:20:00,66.5,65.0,30.07,ESE,120,0.0,0.0,95,0.00,,,0.00,0,Wunderground v.1.15,2013-06-10 03:20:00,
2013-06-09 23:30:00,66.6,65.1,30.07,ESE,120,0.0,0.0,95,0.00,,,0.00,0,Wunderground v.1.15,2013-06-10 03:30:00,
2013-06-09 23:40:00,67.2,65.4,30.07,ESE,120,0.0,0.0,94,0.00,,,0.00,0,Wunderground v.1.15,2013-06-10 03:40:00,
2013-06-09 23:50:00,68.4,65.4,30.07,ESE,121,0.0,0.0,90,0.00,,,0.00,0,Wunderground v.1.15,2013-06-10 03:50:00,